Dallas/Ft Worth, TX

9:33 AM CDT on April 23, 2017 (GMT -0500)
Dallas-Fort Worth International

Weather History for KDFW - November, 2014

Change the Weather History Date:

Saturday, November 1, 2014

  Actual Average Record
Temperature  
Mean Temperature 50 °F 62 °F  
Max Temperature 62 °F 73 °F 88 °F (1945)
Min Temperature 37 °F 52 °F 31 °F (1906)
Degree Days  
Heating Degree Days 15 5  
Month to date heating degree days 15 5  
Since 1 July heating degree days 28 77  
Cooling Degree Days 0 2  
Month to date cooling degree days 0 2  
Year to date cooling degree days 2946 2725  
Moisture  
Dew Point 28 °F    
Average Humidity 48    
Maximum Humidity 70    
Minimum Humidity 25    
Precipitation  
Precipitation 0.00 in 0.12 in 1.96 in (1998)
Month to date precipitation 0.00 0.12  
Year to date precipitation 18.06 31.00  
Snow  
Snow 0.00 in 0.00 in 0.00 in ()
Month to date snowfall 0.0 0.0  
Since 1 July snowfall 0.0 0.0  
Since 1 September snowfall 0.0 0.0  
Snow Depth 0.00 in    
Sea Level Pressure  
Sea Level Pressure 30.36 in    
Wind  
Wind Speed 9 mph (ESE)    
Max Wind Speed 17 mph    
Max Gust Speed 21 mph    
Visibility 10 miles    
Events      
T = Trace of Precipitation, MM = Missing Value Source: NWS Daily Summary

Daily Weather History Graph

Daily Weather History Graph

Search for Another Location

Airport or City:

Trip Planner

Search our weather history database for the weather conditions in past years. The results will help you decide how hot, cold, wet, or windy it might be!

Date:

Astronomy

Nov. 01, 2014 Rise Set
Actual Time 7:46 AM CDT 6:36 PM CDT
Civil Twilight 7:20 AM CDT 7:02 PM CDT
Nautical Twilight 6:51 AM CDT 7:31 PM CDT
Astronomical Twilight 6:22 AM CDT 8:00 PM CDT
Moon 3:14 PM CDT (11/1) 2:01 AM CDT (11/1)
Length of Visible Light 11h 41m
Length of Day
10h 50m
Waxing Gibbous, 68% of the Moon is Illuminated
Nov 1
Waxing Gibbous
Nov 6
Full
Nov 14
Last Quarter
Nov 22
New
Nov 29
First Quarter

Hourly Weather History & Observations

Time (CDT) Temp. Windchill Dew Point Humidity Pressure Visibility Wind Dir Wind Speed Gust Speed Precip Events Conditions
12:53 AM 46.9 °F - 28.9 °F 50% 30.36 in 10.0 mi NNE 11.5 mph - N/A   Partly Cloudy
1:53 AM 44.6 °F 39.2 °F 28.4 °F 53% 30.36 in 10.0 mi NNE 10.4 mph - N/A   Clear
2:53 AM 43.0 °F 38.2 °F 28.9 °F 58% 30.36 in 10.0 mi NNE 8.1 mph - N/A   Clear
3:53 AM 41.0 °F 36.4 °F 28.9 °F 62% 30.37 in 10.0 mi NNE 6.9 mph - N/A   Clear
4:53 AM 39.0 °F 34.8 °F 28.9 °F 67% 30.37 in 10.0 mi NNE 5.8 mph - N/A   Clear
5:53 AM 39.0 °F 34.8 °F 30.0 °F 70% 30.39 in 10.0 mi North 5.8 mph - N/A   Clear
6:53 AM 39.0 °F - 30.0 °F 70% 30.41 in 10.0 mi Calm Calm - N/A   Clear
7:53 AM 39.9 °F 36.7 °F 30.9 °F 70% 30.42 in 10.0 mi East 4.6 mph - N/A   Partly Cloudy
8:53 AM 44.1 °F 39.0 °F 32.0 °F 63% 30.44 in 10.0 mi East 9.2 mph - N/A   Partly Cloudy
9:53 AM 46.9 °F - 26.1 °F 44% 30.45 in 10.0 mi SE 17.3 mph - N/A   Partly Cloudy
10:53 AM 50.0 °F - 27.0 °F 41% 30.44 in 10.0 mi SE 12.7 mph - N/A   Mostly Cloudy
11:53 AM 51.1 °F - 27.0 °F 39% 30.43 in 10.0 mi SE 8.1 mph - N/A   Scattered Clouds
12:53 PM 54.0 °F - 26.1 °F 34% 30.41 in 10.0 mi SSE 4.6 mph - N/A   Partly Cloudy
1:53 PM 57.0 °F - 27.0 °F 32% 30.37 in 10.0 mi SE 5.8 mph - N/A   Partly Cloudy
2:53 PM 59.0 °F - 28.0 °F 31% 30.34 in 10.0 mi Variable 6.9 mph - N/A   Partly Cloudy
3:53 PM 61.0 °F - 28.0 °F 29% 30.32 in 10.0 mi ESE 10.4 mph - N/A   Partly Cloudy
4:53 PM 62.1 °F - 26.1 °F 25% 30.30 in 10.0 mi SE 13.8 mph - N/A   Partly Cloudy
5:53 PM 60.1 °F - 27.0 °F 28% 30.29 in 10.0 mi ESE 9.2 mph - N/A   Mostly Cloudy
6:53 PM 55.9 °F - 28.0 °F 34% 30.28 in 10.0 mi SE 10.4 mph - N/A   Mostly Cloudy
7:53 PM 54.0 °F - 25.0 °F 33% 30.30 in 10.0 mi SSE 10.4 mph - N/A   Partly Cloudy
8:53 PM 54.0 °F - 27.0 °F 35% 30.30 in 10.0 mi SE 10.4 mph - N/A   Clear
9:53 PM 52.0 °F - 28.9 °F 41% 30.30 in 10.0 mi SE 9.2 mph - N/A   Clear
10:53 PM 51.1 °F - 30.0 °F 44% 30.30 in 10.0 mi SE 10.4 mph - N/A   Partly Cloudy
11:53 PM 50.0 °F - 30.9 °F 48% 30.29 in 10.0 mi SE 10.4 mph - N/A   Partly Cloudy